[Date Prev][Date Next][Thread Prev][Thread Next] - [Date Index][Thread Index][Author Index]
2 Line ISS Keps 4-28
- Subject: [sarex] 2 Line ISS Keps 4-28
- From: "Dave Larsen PhD" <doc@xxxxxxxxxxx>
- Date: Thu, 28 Apr 2005 04:19:37 -0700
ISS
1 25544U 98067A 05118.36268519 .00007094 00000-0 58609-4 0 3452
2 25544 051.6441 156.0105 0007874 059.7388 125.3824 15.71584435367843
----
Via the sarex mailing list at AMSAT.ORG courtesy of AMSAT-NA.
To unsubscribe, send "unsubscribe sarex" to Majordomo@amsat.org
AMSAT Home